Location: Acheville
(50.3840°N, 2.8827°E)
Time: 02:50:25
(UTC+00:00)

Cosmos 1605 Rocket - Pass Details

Date: 24 October 2021
Orbit: 945 x 1006 km, 82.9° (Epoch: 05 December)

Event Time Altitude Azimuth Distance (km) Brightness Sun altitude
Rises 18:41:36 0° 194° (SSW) 3,670 7.1 -20.2°
Reaches altitude 10° 18:44:06 10° 196° (SSW) 2,735 6.5 -20.6°
Maximum altitude 18:50:23 74° 281° (W) 1,038 4.2 -21.6°
Drops below altitude 10° 18:56:48 10° 7° (N) 2,787 6.4 -22.6°
Sets 18:59:22 0° 9° (N) 3,745 7.1 -23.0°
